Hourly Data Report for October 21, 2015

All times are specified in Local Standard Time (LST). Add 1 hour to adjust for Daylight Saving Time where and when it is observed.

CAPE DORSET A
NUNAVUT

64°13'49.000" N
76°31'30.000" W
48.20 m
2400637
71366
YTE

Download Data

Hourly Data (October 2015)
Hourly Data Report for October 21, 2015
Temp Definition
°C
Dew Point Temp Definition
°C
Rel Hum Definition
%
Wind Dir Definition
10's deg

Wind Spd Definition
km/h
Visibility Definition
km
Stn Press Definition
kPa
Hmdx Definition


Wind Chill Definition


Weather Definition


TIME
00:00 Legend Double Dagger -5.3 -7.9 82 27 11 16.1 100.99   -10 LegendNANA
01:00 Legend Double Dagger -5.2 -8.1 80 29 21 16.1 101.03   -12 LegendNANA
02:00 Legend Double Dagger -5.2 -8.3 79 28 18 16.1 101.08   -11 LegendNANA
03:00 Legend Double Dagger -5.7 -8.5 81 28 15 16.1 101.11   -11 LegendNANA
04:00 Legend Double Dagger -7.0 -9.0 86 29 5 16.1 101.16   -10 LegendNANA
05:00 Legend Double Dagger -5.6 -8.4 81 27 9 16.1 101.15   -10 LegendNANA
06:00 Legend Double Dagger -4.7 -8.1 77 29 24 16.1 101.15   -12 LegendNANA
07:00 Legend Double Dagger -5.0 -8.1 79 28 21 16.1 101.16   -12 LegendNANA
08:00 Legend Double Dagger -4.9 -7.7 81 29 18 16.1 101.15   -11 LegendNANA
09:00 Legend Double Dagger -4.5 -7.6 79 26 28 16.1 101.09   -12 LegendNANA
10:00 Legend Double Dagger -5.2 -7.5 84 26 35 16.1 101.05   -14 LegendNANA
11:00 Legend Double Dagger -5.6 -7.9 84 26 35 16.1 101.03   -14 LegendNANA
12:00 Legend Double Dagger -5.8 -8.1 84 26 34 16.1 100.97   -15 LegendNANA
13:00 Legend Double Dagger -5.2 -7.3 85 26 34 16.1 100.93   -14 LegendNANA
14:00 Legend Double Dagger -5.1 -7.9 81 27 41 16.1 100.91   -14 LegendNANA
15:00 Legend Double Dagger -4.8 -7.5 82 27 35 16.1 100.93   -13 LegendNANA
16:00 Legend Double Dagger -4.6 -8.0 77 28 34 16.1 100.95   -13 LegendNANA
17:00 Legend Double Dagger -4.6 -8.1 76 29 28 16.1 100.99   -12 LegendNANA
18:00 Legend Double Dagger -4.9 -7.6 81 27 28 16.1 100.98   -13 Snow
19:00 Legend Double Dagger -5.0 -6.9 87 29 43 11.3 100.97   -14 Snow
20:00 Legend Double Dagger -5.6 -7.9 84 28 32 16.1 101.02   -14 Snow
21:00 Legend Double Dagger -5.5 -7.6 86 29 30 16.1 101.07   -14 Snow
22:00 Legend Double Dagger -5.9 -8.9 79 29 28 16.1 101.09   -14 LegendNANA
23:00 Legend Double Dagger -5.7 -8.6 80 27 21 16.1 101.12   -13 Snow

Notes on Data Quality.

Legend

  • E = Estimated
  • M = Missing
  • NA = Not Available
  • ‡ = Partner data that is not subject to review by the National Climate Archives
Date modified: